Houma, LA

10:20 AM CDT on April 25, 2018 (GMT -0500)
Houma-terrebonne

Weather History for KHUM - July, 2013

Change the Weather History Date:

Tuesday, July 30, 2013

  Actual Average Record
Temperature  
Mean Temperature 84 °F -  
Max Temperature 93 °F 91 °F 97 °F (1960)
Min Temperature 75 °F 73 °F 69 °F (1971)
Cooling Degree Days 19    
Growing Degree Days 34 (Base 50)    
Moisture  
Dew Point 75 °F    
Average Humidity 83    
Maximum Humidity 94    
Minimum Humidity 46    
Precipitation  
Precipitation 0.00 in - - ()
Sea Level Pressure  
Sea Level Pressure 30.10 in    
Wind  
Wind Speed 1 mph (South)    
Max Wind Speed 14 mph    
Max Gust Speed -    
Visibility 6 miles    
Events Rain , Thunderstorm    
Averages and records for this station are not official NWS values.
T = Trace of Precipitation, MM = Missing Value Source: NWS Daily Summary

Daily Weather History Graph

Daily Weather History Graph

Search for Another Location

Airport or City:

Astronomy

Jul. 30, 2013 Rise Set
Actual Time 6:21 AM CDT 7:56 PM CDT
Civil Twilight 5:55 AM CDT 8:22 PM CDT
Nautical Twilight 5:24 AM CDT 8:53 PM CDT
Astronomical Twilight 4:51 AM CDT 9:25 PM CDT
Moon 12:35 AM CDT (7/30) 2:18 PM CDT (7/30)
Length of Visible Light 14h 26m
Length of Day
13h 34m
Last Quarter, 41% of the Moon is Illuminated
Jul 30
Last Quarter
Aug 6
New
Aug 14
First Quarter
Aug 20
Full
Aug 28
Last Quarter

Hourly Weather History & Observations

Time (CDT) Temp. Heat Index Dew Point Humidity Pressure Visibility Wind Dir Wind Speed Gust Speed Precip Events Conditions
12:15 AM 77.7 °F - 74.1 °F 89% 30.10 in 7.0 mi Calm Calm - N/A   Mostly Cloudy
12:35 AM 77.5 °F - 73.8 °F 88% 30.10 in 7.0 mi Calm Calm - N/A   Scattered Clouds
12:55 AM 78.3 °F - 74.5 °F 88% 30.10 in 10.0 mi Calm Calm - N/A   Mostly Cloudy
1:15 AM 78.4 °F - 74.5 °F 88% 30.10 in 7.0 mi Calm Calm - N/A   Mostly Cloudy
1:35 AM 78.8 °F - 74.7 °F 87% 30.10 in 7.0 mi Calm Calm - N/A   Overcast
1:55 AM 78.6 °F - 74.7 °F 88% 30.10 in 7.0 mi Calm Calm - N/A   Overcast
2:15 AM 79.0 °F - 75.2 °F 88% 30.10 in 7.0 mi Calm Calm - N/A   Overcast
2:35 AM 78.8 °F - 75.0 °F 88% 30.10 in 7.0 mi Calm Calm - N/A   Scattered Clouds
2:55 AM 78.3 °F - 74.8 °F 89% 30.10 in 7.0 mi Calm Calm - N/A   Scattered Clouds
3:15 AM 77.9 °F - 74.3 °F 89% 30.10 in 5.0 mi Calm Calm - N/A   Scattered Clouds
3:35 AM 78.3 °F - 75.0 °F 90% 30.10 in 7.0 mi Calm Calm - N/A   Scattered Clouds
3:55 AM 78.4 °F - 74.8 °F 89% 30.10 in 7.0 mi Calm Calm - N/A   Clear
4:15 AM 78.4 °F - 74.3 °F 87% 30.10 in 7.0 mi Calm Calm - N/A   Clear
4:35 AM 78.3 °F - 74.3 °F 88% 30.11 in 7.0 mi Calm Calm - N/A   Scattered Clouds
4:55 AM 77.7 °F - 74.1 °F 89% 30.11 in 7.0 mi Calm Calm - N/A   Scattered Clouds
5:15 AM 76.6 °F - 73.2 °F 89% 30.11 in 4.0 mi Calm Calm - N/A   Clear
5:35 AM 77.0 °F - 73.9 °F 90% 30.11 in 1.8 mi Calm Calm - N/A   Mist
5:50 AM 75.2 °F - 73.4 °F 94% - 6.0 mi SW 3.5 mph - N/A   Clear
5:55 AM 76.5 °F - 73.4 °F 90% 30.11 in 4.0 mi Calm Calm - N/A   Clear
6:50 AM 77.0 °F - 73.4 °F 89% - 6.0 mi Calm Calm - N/A   Scattered Clouds
7:50 AM 80.6 °F 87.1 °F 77.0 °F 89% - 6.0 mi South 3.5 mph - N/A   Scattered Clouds
8:50 AM 84.2 °F 92.3 °F 75.2 °F 74% - 6.0 mi Calm Calm - N/A   Clear
9:50 AM 87.8 °F 95.6 °F 73.4 °F 62% - 7.0 mi Calm Calm - N/A   Scattered Clouds
10:50 AM 87.8 °F 95.6 °F 73.4 °F 62% 30.16 in 7.0 mi NNW 3.5 mph - N/A   Mostly Cloudy
11:48 AM 87.8 °F 93.8 °F 71.6 °F 58% 30.16 in 7.0 mi SSE 5.8 mph - N/A   Mostly Cloudy
12:48 PM 93.2 °F 98.8 °F 69.8 °F 46% 30.14 in 7.0 mi WSW 4.6 mph - N/A   Scattered Clouds
1:50 PM 91.4 °F 98.4 °F 71.6 °F 52% 30.12 in 7.0 mi South 4.6 mph - N/A   Scattered Clouds
2:48 PM 89.6 °F 96.2 °F 71.6 °F 55% 30.10 in 7.0 mi South 8.1 mph - N/A   Mostly Cloudy
3:28 PM 86.0 °F 93.4 °F 73.4 °F 66% 30.12 in 3.0 mi South 8.1 mph - N/A Rain Rain
3:48 PM 78.8 °F - 73.4 °F 83% 30.12 in 3.0 mi NE 13.8 mph - N/A Rain , Thunderstorm Light Thunderstorms and Rain
4:55 PM 78.8 °F - 73.4 °F 83% 30.12 in 3.0 mi South 4.6 mph - N/A Rain , Thunderstorm Light Thunderstorms and Rain
5:48 PM 80.6 °F 86.2 °F 75.2 °F 84% 30.10 in 7.0 mi NE 4.6 mph - N/A   Scattered Clouds
6:48 PM 82.4 °F 89.5 °F 75.2 °F 79% 30.09 in 7.0 mi North 5.8 mph - N/A   Mostly Cloudy
7:15 PM 81.5 °F 88.5 °F 76.1 °F 84% 30.08 in 7.0 mi Calm Calm - N/A   Scattered Clouds
7:35 PM 81.5 °F 88.5 °F 76.3 °F 84% 30.09 in 5.0 mi Calm Calm - N/A   Haze
7:55 PM 81.7 °F 89.0 °F 76.5 °F 84% 30.09 in 7.0 mi Calm Calm - N/A   Scattered Clouds
8:15 PM 80.8 °F 87.2 °F 76.6 °F 87% 30.09 in 5.0 mi Calm Calm - N/A   Clear
8:35 PM 80.2 °F 86.1 °F 76.6 °F 89% 30.09 in 7.0 mi Calm Calm - N/A   Scattered Clouds
8:55 PM 80.2 °F 86.1 °F 76.6 °F 89% 30.10 in 7.0 mi Calm Calm - N/A   Scattered Clouds
9:15 PM 79.9 °F - 76.3 °F 89% 30.09 in 5.0 mi Calm Calm - N/A   Overcast
9:35 PM 79.7 °F - 76.3 °F 89% 30.10 in 5.0 mi Calm Calm - N/A   Overcast
9:55 PM 79.7 °F - 76.1 °F 89% 30.09 in 7.0 mi Calm Calm - N/A   Overcast
10:15 PM 79.7 °F - 75.6 °F 87% 30.09 in 10.0 mi Calm Calm - N/A   Mostly Cloudy
10:35 PM 79.7 °F - 75.4 °F 87% 30.09 in 10.0 mi Calm Calm - N/A   Clear
10:55 PM 79.5 °F - 75.2 °F 87% 30.10 in 7.0 mi Calm Calm - N/A   Clear
11:15 PM 79.0 °F - 74.8 °F 87% 30.09 in 7.0 mi Calm Calm - N/A   Clear
11:35 PM 78.8 °F - 75.2 °F 89% 30.09 in 7.0 mi Calm Calm - N/A   Clear
11:55 PM 78.8 °F - 74.8 °F 88% 30.08 in 7.0 mi Calm Calm - N/A   Clear